RH
100 100 100 100 100 100 100 100 100 100 100 100 99 99 99 99 100 98 100 97 94 101 99 94 93 91 94 95 96 97 95 80 64 82 88 41 6 9 10 9 16 21 23 23 22 17 15 20 22 21 21 21 25 27 23 23 19 14 24 27 24 25 23 26 21 13 13 12 11 10 10 10 10 9 22 50 65 73 84 92 91 87 87 86 86 91 97 99
100 100 100 99 100 100 100 100 100 100 100 100 100 100 99 100 100 100 100 99 99 99 96 95 91 91 95 95 96 97 91 80 84 97 65 14 7 13 9 11 20 24 25 24 21 17 18 23 23 23 24 25 25 23 20 19 15 17 28 26 23 25 23 22 16 11 11 11 11 10 10 9 10 7 14 49 68 76 95 98 94 98 96 93 93 96 99 100
100 100 100 100 100 100 100 100 100 100 100 100 100 100 100 100 99 100 100 99 100 97 95 96 94 96 96 96 99 92 88 89 91 80 37 11 14 10 11 17 21 25 23 20 17 15 17 18 17 20 24 26 27 21 18 17 14 17 22 20 21 23 21 19 13 12 12 10 11 10 10 8 10 6 13 50 69 74 93 99 97 100 99 98 96 95 99 99
99 99 100 100 100 100 100 100 100 100 100 100 100 100 100 100 100 100 100 100 100 98 97 97 98 98 96 100 96 84 90 87 68 46 24 21 16 7 15 21 23 25 22 20 17 14 15 14 14 17 20 25 27 20 18 19 14 15 16 18 21 18 16 15 12 13 11 10 10 9 10 10 8 7 23 53 61 63 80 88 92 96 98 98 96 95 95 97
99 99 100 100 100 100 100 100 100 100 99 100 100 100 100 99 100 99 100 100 99 100 98 97 98 99 100 97 83 81 87 63 38 30 24 26 17 10 14 18 24 25 25 24 18 15 13 13 16 19 20 23 24 19 20 19 13 14 15 17 17 13 13 11 11 12 11 11 9 10 10 8 8 8 23 36 32 43 67 78 85 89 92 93 95 94 92 96
100 99 99 100 100 100 100 100 99 99 100 100 99 100 100 100 100 100 100 100 100 100 98 99 98 99 96 84 75 80 76 46 29 26 22 25 19 10 10 15 24 26 28 24 16 15 15 16 19 22 23 22 22 20 22 16 11 15 17 15 13 12 12 9 11 10 11 10 7 11 8 8 11 6 22 36 26 37 65 78 83 84 86 88 91 92 93 97
100 99 100 100 99 100 100 100 99 99 99 99 100 100 99 100 99 100 100 99 100 99 99 100 97 98 86 75 78 81 78 53 27 22 22 24 19 11 9 17 25 28 31 23 15 15 18 21 22 25 24 21 23 19 18 14 11 15 16 14 11 11 11 10 10 9 12 10 8 11 6 10 8 2 41 75 65 65 79 83 83 82 82 86 90 92 94 96
100 100 100 99 100 100 99 99 99 100 99 99 100 99 99 100 100 100 100 100 100 99 100 98 97 98 80 76 84 79 80 56 20 21 26 22 19 12 11 20 28 32 33 24 15 16 20 22 23 27 26 23 23 17 15 13 12 13 13 12 10 10 10 9 10 10 12 9 10 10 7 11 7 22 67 90 86 87 87 84 84 84 85 87 90 93 95 96
99 100 100 99 100 99 100 100 98 99 100 99 99 100 100 99 99 100 99 100 100 99 100 98 98 92 75 86 88 59 49 34 18 26 27 23 20 13 14 23 31 32 28 20 14 15 18 21 24 26 25 22 18 15 15 12 14 13 10 11 9 9 9 9 9 10 11 10 10 8 9 9 9 51 86 82 86 89 85 87 87 87 88 89 91 93 95 96
100 100 99 100 100 99 100 99 100 100 99 99 99 99 99 100 100 99 100 99 100 100 100 99 98 86 76 89 79 41 27 23 22 26 21 23 21 15 17 24 30 28 20 17 15 16 19 23 25 24 22 20 14 13 13 10 13 12 11 11 9 10 8 9 9 9 10 9 11 7 11 9 7 57 90 81 88 89 87 92 87 89 89 88 92 94 95 94
100 100 100 100 99 99 100 99 100 99 99 100 99 100 100 100 100 98 99 99 99 100 99 99 95 85 84 91 75 40 24 22 21 19 16 20 21 18 17 21 26 22 17 17 16 16 18 23 24 22 22 21 15 13 13 11 12 12 13 13 13 13 9 10 9 9 11 6 11 9 7 10 6 47 89 86 86 87 90 93 87 90 89 89 94 94 96 95
99 99 99 98 98 99 99 100 100 99 101 100 99 100 99 98 99 101 100 99 100 98 98 101 92 84 87 92 80 42 19 22 20 15 15 18 20 19 18 21 23 21 19 18 17 14 15 19 22 23 23 22 19 16 14 13 12 13 14 15 16 14 9 11 10 10 10 6 12 9 7 14 5 32 82 88 84 88 90 92 90 90 90 92 95 95 96 95
95 98 99 97 98 100 100 100 100 99 97 97 101 100 96 93 92 96 99 99 100 98 98 100 91 86 85 72 52 26 15 24 23 18 15 15 19 20 20 22 21 21 18 14 14 11 11 16 21 25 23 22 22 16 13 13 13 14 13 14 16 17 14 11 10 10 8 9 9 7 14 18 16 46 86 89 85 90 92 93 92 92 94 94 94 96 97 95
77 87 96 101 99 98 99 98 98 99 96 98 100 93 85 78 77 87 97 99 98 97 98 98 89 90 94 64 28 19 22 27 29 25 15 13 18 18 20 22 18 16 13 10 10 10 13 17 19 22 19 20 18 12 15 17 17 16 13 19 21 17 18 13 14 14 7 11 8 7 15 15 40 81 92 87 87 91 95 94 93 94 95 96 96 97 97 96
51 59 72 86 91 87 87 89 91 94 92 87 80 72 67 66 78 90 95 99 95 93 97 95 88 90 95 66 26 22 30 35 36 27 16 14 16 16 18 19 16 13 11 10 9 12 15 16 17 18 17 17 16 16 23 25 29 25 15 30 37 20 17 17 15 16 8 10 8 8 13 18 60 98 87 85 91 90 96 96 94 96 96 97 98 97 96 96
33 37 42 55 69 70 66 65 70 69 63 59 56 54 58 69 86 90 91 97 94 95 96 89 85 86 79 55 28 23 30 35 32 24 18 14 13 15 14 13 15 14 14 14 13 14 15 17 18 18 17 12 17 30 33 33 45 46 26 27 39 25 19 18 12 14 10 9 9 8 14 18 53 90 87 86 90 91 98 98 96 98 98 98 97 97 96 95
25 27 29 32 42 54 55 49 48 48 44 45 48 47 57 76 86 85 87 91 92 95 91 83 84 79 58 35 25 26 28 25 20 22 20 13 13 13 12 15 16 14 17 15 15 18 15 17 18 19 30 29 31 37 32 31 41 51 46 35 36 29 21 20 16 15 10 10 10 8 14 13 28 71 90 86 87 94 98 98 99 98 97 97 96 96 96 94
22 22 25 25 26 37 50 50 41 42 45 41 40 41 50 73 87 89 85 84 92 91 81 81 76 59 40 26 25 26 24 19 15 18 17 14 14 12 13 16 16 15 17 14 16 18 13 20 28 26 34 35 31 33 32 39 37 34 41 36 37 37 26 23 21 15 12 12 12 11 14 14 29 68 90 85 84 93 98 97 97 97 97 96 95 96 94 92
21 21 21 23 22 23 36 49 42 43 49 37 38 55 63 77 89 89 85 82 81 62 49 66 60 34 26 26 25 22 20 18 15 15 15 16 14 14 15 14 14 14 15 18 19 19 14 20 31 27 27 30 27 30 30 38 37 25 28 31 34 37 29 25 21 16 16 14 14 16 11 19 51 80 87 84 83 87 93 95 94 97 97 94 95 94 92 91
20 20 19 20 21 20 25 41 44 45 51 40 45 68 71 73 78 79 89 92 78 48 32 49 50 30 26 27 23 21 22 19 13 13 14 14 14 15 16 13 15 15 17 26 24 23 21 18 27 28 31 37 37 39 31 29 32 24 26 33 32 33 28 22 19 17 20 16 16 19 13 29 68 87 86 84 81 83 89 93 96 97 96 95 95 92 90 90
19 18 20 19 19 21 21 34 46 45 50 48 51 63 55 49 52 57 74 79 67 56 45 41 40 33 27 25 24 23 26 24 19 16 12 12 14 15 17 16 18 21 25 30 27 25 22 22 31 32 34 38 40 46 39 29 32 28 30 34 31 32 27 18 19 23 25 20 19 23 18 29 56 70 78 80 75 79 89 95 96 96 97 94 93 91 89 85
17 19 19 17 19 20 18 30 44 43 49 57 60 68 56 36 34 37 47 55 50 51 53 45 40 38 30 27 29 26 27 32 29 21 13 12 14 14 17 19 20 27 31 28 26 24 25 30 31 32 37 35 36 49 49 38 37 36 35 33 29 30 25 20 27 33 32 24 21 24 18 24 43 54 66 73 69 72 82 91 93 93 96 94 91 91 87 84
18 19 17 19 18 17 19 25 37 42 48 58 62 63 48 27 28 32 37 49 47 43 50 51 47 44 41 35 31 29 32 35 31 22 14 11 16 17 16 18 19 24 28 26 28 27 29 35 33 36 41 32 30 44 48 39 38 41 32 23 26 29 22 21 30 36 39 35 28 28 27 34 46 45 47 57 60 64 73 83 87 88 89 88 86 85 84 84
19 17 18 19 15 18 19 18 33 46 50 60 58 44 29 24 33 37 40 52 52 45 44 43 43 43 41 33 26 32 36 31 26 21 14 12 16 17 16 19 19 19 22 28 35 31 26 28 30 37 42 34 28 33 37 29 35 53 43 25 27 30 23 21 31 41 49 48 41 42 41 39 42 37 34 42 48 59 71 76 80 83 83 77 76 80 81 80
19 19 18 16 17 18 13 21 46 55 52 55 43 23 18 26 35 36 45 61 62 54 42 33 37 37 30 27 26 30 32 27 24 18 13 12 14 16 17 16 17 21 22 25 32 31 24 23 23 25 35 39 30 32 41 33 31 48 49 37 31 29 27 26 37 49 48 40 35 39 35 35 46 43 31 35 47 61 71 74 75 78 80 76 76 80 80 78
21 22 18 18 19 12 14 35 53 52 44 37 26 21 25 35 38 36 56 82 76 58 43 31 33 30 22 26 27 24 28 28 22 16 13 11 11 13 16 16 18 22 24 25 29 30 26 24 23 21 31 42 38 35 41 39 31 32 42 46 37 30 27 29 40 45 39 35 37 42 40 43 52 41 30 39 54 67 69 69 71 72 76 77 77 79 78 78
24 23 22 22 18 18 29 38 39 39 32 26 30 33 32 36 37 37 63 86 72 50 39 30 26 24 20 22 22 23 31 30 19 15 13 12 12 11 15 21 18 15 23 27 28 33 29 25 29 29 30 39 41 36 40 41 31 29 42 46 35 28 26 35 45 38 37 39 42 58 55 44 45 40 39 42 47 64 71 67 68 67 69 72 73 77 76 76
25 23 26 26 21 27 33 34 43 47 36 32 39 40 35 34 35 48 66 59 40 32 29 25 21 17 17 18 18 22 27 24 20 19 14 11 12 11 16 21 18 18 24 23 27 40 35 21 27 33 30 32 33 37 42 34 23 33 46 38 27 30 37 49 47 38 49 40 31 59 56 33 49 59 53 43 32 43 59 62 63 62 62 65 68 74 74 74
27 24 28 29 25 24 31 49 57 44 33 32 35 36 33 32 37 56 67 46 29 27 21 20 21 16 17 19 18 20 20 17 20 20 14 12 13 13 16 18 19 19 17 20 29 37 31 20 26 29 27 30 30 36 39 27 22 33 38 32 31 41 53 61 52 43 58 46 31 58 52 28 53 72 60 42 24 26 42 51 54 53 55 58 62 70 73 72
27 24 29 33 32 31 42 56 37 18 25 24 28 37 32 44 63 67 66 49 34 29 19 18 22 18 18 20 19 20 19 18 18 16 14 15 14 14 15 16 21 23 28 36 33 29 29 28 31 26 21 28 28 29 31 24 22 25 28 28 30 44 58 70 74 55 46 47 46 63 59 34 46 66 60 42 23 24 32 38 42 41 44 53 59 67 71 69
26 22 30 36 37 40 46 40 19 21 30 13 22 38 32 54 81 78 67 47 35 36 25 19 22 20 19 21 21 20 19 19 18 17 19 18 16 17 17 19 24 30 43 46 34 33 33 24 24 24 22 23 16 17 22 22 25 27 33 33 25 40 54 58 70 56 42 51 56 67 62 36 38 51 51 48 40 38 36 32 35 34 36 49 59 65 68 66
26 24 28 30 33 38 36 24 18 29 24 8 31 56 51 57 69 79 73 45 39 45 30 23 25 21 21 22 22 21 19 21 19 19 22 20 22 23 19 25 31 29 39 46 38 37 36 29 27 22 20 17 11 17 19 20 30 29 37 46 36 39 45 48 59 57 54 52 48 63 55 35 48 50 41 46 44 42 43 35 34 37 40 52 61 65 66 64
27 27 24 22 26 29 22 13 14 20 11 13 49 76 75 63 59 72 68 43 39 38 29 30 28 22 23 24 26 23 20 24 22 19 22 21 26 25 18 28 34 25 36 49 40 31 34 40 34 19 17 16 14 23 22 21 27 22 30 43 42 44 45 50 61 56 51 45 45 60 49 36 51 44 37 48 41 40 48 47 51 55 57 62 64 66 67 68
27 27 23 21 20 18 14 10 16 19 13 28 62 77 70 61 61 68 66 53 42 32 31 32 25 24 25 24 27 23 20 26 23 19 22 22 27 31 25 24 26 26 36 42 38 36 37 40 35 23 19 17 15 20 25 27 26 23 29 29 34 50 48 45 52 47 44 46 49 47 37 45 48 32 40 51 45 51 58 62 71 70 68 69 67 69 70 72
26 26 27 25 17 13 10 10 20 22 26 54 79 78 65 60 67 71 69 61 44 32 32 26 23 28 28 27 28 23 23 26 23 22 25 26 31 38 34 24 24 30 33 37 42 38 31 35 40 30 19 16 14 15 19 21 21 25 29 23 24 38 46 46 47 57 61 52 48 42 42 62 54 31 42 49 44 57 64 68 74 72 73 73 71 74 75 77
28 29 33 28 18 13 8 9 20 25 43 72 77 74 73 64 61 60 52 44 34 30 31 29 30 32 32 35 33 27 25 24 24 25 26 27 29 34 33 26 25 23 25 41 51 39 28 34 39 27 18 16 13 14 14 12 21 28 22 23 29 30 44 51 45 63 72 50 50 51 42 56 55 37 41 46 45 51 58 68 72 71 74 73 75 78 77 81
39 46 52 40 26 24 18 12 19 33 57 70 65 75 82 63 52 50 40 32 29 28 31 37 41 37 37 42 41 35 30 29 29 27 32 35 32 34 34 28 25 19 18 32 40 40 39 39 36 26 17 16 14 15 16 12 20 27 20 26 33 28 40 54 53 63 61 46 56 55 38 45 53 48 46 44 43 47 56 69 73 74 75 73 79 80 78 85
60 73 69 47 35 40 34 18 23 53 74 73 74 90 85 60 46 42 35 30 28 26 29 37 42 38 35 41 47 39 32 39 37 29 36 35 31 39 35 26 24 17 19 23 23 34 40 34 37 34 20 19 22 24 27 23 17 19 21 23 28 34 39 43 48 55 51 50 54 48 48 54 47 47 50 43 44 48 54 64 68 74 79 78 81 81 82 87
77 81 61 43 44 48 40 29 40 67 79 79 89 92 76 60 50 40 35 32 28 28 34 38 36 34 35 41 47 39 36 48 44 30 32 31 35 43 32 25 24 18 23 24 20 41 50 35 34 36 24 20 27 33 35 31 22 20 26 27 33 50 52 40 42 50 50 54 54 47 55 62 55 55 53 47 54 54 52 61 66 72 79 81 82 84 86 88
77 62 41 43 54 52 44 46 58 70 74 81 92 83 65 57 48 39 36 32 27 28 35 38 30 29 35 35 38 38 39 49 45 34 34 33 36 39 26 21 22 20 27 27 31 51 50 33 35 42 35 27 29 29 25 26 24 21 29 35 36 41 41 35 39 47 49 57 65 61 59 65 69 66 57 55 61 56 53 63 71 73 76 80 82 84 86 87
82 55 40 48 59 58 51 55 68 78 82 83 82 73 60 53 48 44 38 33 31 28 28 30 27 29 31 26 30 36 37 45 48 43 38 32 35 37 26 20 20 21 29 33 40 47 40 41 55 54 39 30 28 24 20 20 19 20 28 34 38 42 39 34 36 46 57 63 66 64 61 66 69 62 60 64 64 58 58 65 71 73 73 78 82 82 83 84
79 58 46 47 58 62 59 67 79 82 84 82 73 63 55 50 48 44 36 32 33 28 24 24 25 28 28 25 30 34 34 40 43 43 38 30 36 38 26 23 25 26 35 35 32 42 57 64 59 46 36 31 26 23 23 21 21 27 30 34 51 56 48 49 51 51 54 54 57 62 64 68 70 68 67 66 66 65 62 64 69 73 75 79 83 82 83 83
74 66 50 42 54 66 71 80 84 79 78 74 61 50 49 49 46 39 35 33 30 27 25 24 24 24 22 25 29 29 33 35 33 38 40 33 35 32 23 28 33 33 39 35 27 42 60 54 42 45 49 45 37 32 29 27 31 34 31 38 50 43 44 66 73 68 60 51 53 61 64 68 72 71 67 65 67 68 65 66 69 73 77 77 79 82 82 83
80 81 67 46 42 58 78 86 83 83 86 76 55 44 43 41 38 36 34 30 29 30 31 29 30 28 26 30 31 29 33 35 31 35 40 38 36 31 27 30 32 35 38 33 32 39 40 39 45 47 41 39 47 53 48 38 34 35 36 42 43 40 54 65 64 71 65 48 55 67 66 67 64 58 60 64 66 66 67 69 68 73 77 75 76 80 80 83
82 82 81 67 51 63 89 94 85 86 86 75 60 51 46 40 35 33 32 31 32 38 41 39 36 36 36 40 43 43 42 40 38 41 44 43 35 27 29 29 27 36 46 47 49 46 43 54 66 60 48 48 58 69 70 55 41 40 42 43 44 48 50 40 45 68 61 43 58 71 66 65 62 58 61 64 67 70 71 71 68 69 70 70 73 76 78 84
81 81 86 86 79 85 97 93 87 86 79 70 59 50 51 51 41 32 31 35 35 39 45 43 42 49 51 51 54 57 54 49 47 49 53 53 42 28 31 36 32 40 53 56 55 58 63 69 74 75 67 58 56 57 54 48 43 38 34 37 47 57 58 54 57 63 60 57 58 55 62 69 64 64 68 67 70 73 72 76 78 75 73 73 74 74 75 79
79 82 84 85 84 91 94 85 84 82 72 65 56 51 56 55 46 39 36 38 38 42 49 44 43 55 60 59 61 62 64 62 55 53 55 57 54 40 30 30 32 44 54 50 51 68 73 58 56 66 58 45 45 40 30 34 39 38 39 44 49 56 66 66 52 42 56 67 52 45 67 74 62 65 72 70 72 71 69 76 80 80 79 77 76 75 73 74
70 73 78 79 79 89 92 83 79 71 62 59 52 51 57 56 53 51 45 44 40 43 56 54 46 49 52 58 66 66 70 71 63 62 59 54 59 55 39 29 30 40 47 42 48 71 73 50 43 52 48 40 40 35 31 39 45 53 64 64 58 61 64 56 48 51 61 63 55 56 72 73 63 66 72 70 74 74 68 70 73 74 77 76 76 78 77 77
70 74 81 82 79 84 86 80 75 63 56 61 56 49 54 58 57 49 46 56 54 45 56 61 51 45 45 54 68 71 71 69 63 64 61 56 61 59 47 40 35 34 42 43 45 59 65 53 47 52 49 42 40 38 38 44 52 64 74 71 65 69 70 64 64 70 68 67 73 74 74 74 66 65 69 68 69 69 67 70 76 77 79 80 80 83 85 85
71 72 78 84 78 71 68 68 72 67 60 64 62 52 50 56 56 46 40 55 60 50 53 58 51 44 41 46 58 62 59 59 59 59 57 58 62 54 44 43 35 28 40 47 43 48 54 49 57 72 63 45 42 46 47 52 59 65 70 73 70 66 70 77 78 77 75 73 73 73 75 74 64 62 67 63 60 64 67 73 80 82 83 83 81 84 87 88
69 61 66 81 75 64 63 59 63 74 76 73 66 55 51 52 53 51 43 41 46 48 53 55 50 44 42 45 50 50 48 52 56 56 54 55 55 47 41 42 35 28 40 49 44 51 60 52 60 80 69 47 45 48 52 57 57 62 73 77 74 70 72 78 79 78 78 73 70 74 78 71 64 66 67 60 59 62 63 67 72 74 80 84 86 87 86 87
78 70 72 85 73 61 65 59 57 75 85 81 68 56 55 51 47 56 58 43 36 42 47 51 50 47 46 45 42 39 38 43 47 46 45 45 45 44 40 38 35 26 32 44 44 55 72 60 52 67 64 51 54 58 61 60 51 60 77 75 72 75 73 72 73 73 76 78 78 79 72 64 66 71 68 63 61 60 59 62 63 63 66 71 79 88 86 84
Wind_Speed
14 14 14 13 13 13 13 12 12 12 12 12 12 11 11 11 11 11 11 11 11 12 12 11 11 12 13 13 14 14 17 19 19 15 9 13 14 11 9 10 9 8 6 6 5 1 2 2 2 1 2 1 1 1 2 3 2 2 3 2 3 3 3 5 5 3 2 5 6 7 8 4 4 4 2 6 9 7 7 7 4 8 10 10 16 25 28 26
14 14 14 14 13 13 13 12 12 12 12 12 12 12 12 11 11 11 11 11 11 12 11 11 11 12 12 12 13 14 17 19 17 15 16 14 11 9 12 14 10 8 7 7 8 5 4 3 2 3 3 1 1 1 1 1 2 3 3 2 4 4 4 5 5 3 3 6 8 7 6 3 1 2 1 4 3 4 8 6 6 10 12 14 20 24 23 25
14 14 14 14 14 13 13 13 12 12 12 13 12 12 12 12 12 11 11 11 11 11 11 11 11 11 11 11 12 13 16 14 9 11 10 8 11 12 14 17 11 8 7 6 6 5 4 3 3 4 4 1 2 1 1 1 2 2 3 3 5 5 5 5 6 7 7 6 8 7 4 4 4 2 2 4 4 3 4 4 6 9 10 12 16 18 18 21
15 15 15 15 14 14 13 13 13 13 12 12 12 12 12 12 12 11 11 11 11 11 11 11 11 11 10 11 12 12 11 6 3 6 3 3 6 12 19 17 11 9 8 5 3 4 4 3 4 4 3 1 3 1 1 3 2 1 3 5 5 4 4 7 8 8 7 4 5 8 6 6 6 1 3 7 5 3 3 5 8 14 14 15 15 14 15 17
14 15 15 15 14 14 13 13 13 13 13 12 12 12 12 12 12 11 11 11 11 11 11 11 11 11 10 10 10 10 7 2 2 4 3 4 3 11 21 18 13 11 9 6 4 5 4 3 4 4 3 0 3 2 2 4 2 1 3 6 6 3 3 8 7 6 5 4 3 5 6 6 3 3 3 8 5 4 5 5 9 17 19 18 16 13 13 14
15 15 15 15 15 14 14 13 14 13 13 12 12 12 12 12 11 11 11 11 11 10 10 10 10 11 10 10 8 5 1 0 5 5 3 3 3 9 19 20 16 12 10 7 5 5 4 4 4 2 2 0 1 2 4 4 2 2 4 4 6 5 5 8 6 5 4 3 4 2 4 3 4 4 2 6 4 6 4 8 10 14 16 17 16 14 14 13
15 15 15 15 14 14 14 14 14 13 12 12 12 12 11 11 11 11 11 11 10 10 10 9 10 10 10 8 3 1 2 5 9 6 5 4 4 8 17 20 17 13 11 8 6 5 4 5 3 3 3 1 2 4 5 3 1 4 5 5 7 6 6 9 8 7 5 5 7 2 3 3 2 5 1 3 2 3 8 12 12 12 13 14 14 13 13 12
15 15 16 15 14 14 14 14 14 13 12 12 12 12 11 11 11 11 10 10 10 9 9 8 8 9 9 6 1 2 1 7 9 5 5 7 6 10 18 20 17 14 12 11 8 6 4 5 4 3 3 2 3 3 4 2 1 4 6 5 5 5 7 10 8 9 7 7 6 2 4 7 5 0 4 4 2 7 12 14 13 13 13 13 13 13 12 11
16 16 16 15 15 14 14 14 14 12 12 12 12 12 11 11 10 11 10 10 10 8 9 7 7 8 7 4 1 2 3 5 5 4 6 9 9 12 20 19 18 15 12 12 11 9 6 5 5 4 3 3 3 3 3 1 2 5 7 5 5 7 8 8 8 9 8 5 3 4 7 9 5 4 4 4 2 7 12 14 14 15 14 12 12 12 12 11
17 16 16 15 15 14 14 14 13 12 12 12 12 12 11 11 10 10 10 9 9 8 8 6 7 7 5 3 2 1 5 3 3 4 6 9 10 14 20 18 18 17 12 9 11 11 6 4 5 4 3 2 3 3 2 4 3 5 4 5 6 9 10 6 7 8 5 4 5 8 8 8 3 4 1 1 5 8 12 13 12 14 13 13 12 10 10 11
17 17 16 15 14 14 14 13 13 12 12 12 12 11 11 10 10 10 9 9 8 7 7 5 6 5 2 1 3 3 5 4 2 4 6 9 10 14 20 18 17 19 14 7 11 14 7 5 4 3 2 2 2 3 3 4 3 4 3 5 8 8 8 5 6 7 3 3 6 9 5 4 2 3 6 7 8 10 13 12 11 13 12 12 11 9 8 8
18 18 16 15 14 14 14 13 13 12 12 12 11 11 11 10 10 9 9 8 8 6 5 4 4 3 1 1 5 9 5 3 4 4 7 9 10 12 16 18 17 19 17 8 9 17 13 7 4 3 2 1 2 3 4 4 2 4 2 3 8 7 6 7 5 5 5 3 6 8 1 4 3 3 8 11 11 10 12 12 11 11 11 10 9 8 6 7
18 18 17 15 14 14 13 13 13 12 12 12 12 11 10 10 9 9 9 8 7 5 4 3 3 3 1 1 8 9 6 4 7 7 8 7 9 11 13 16 15 16 18 13 10 16 18 13 7 4 3 1 2 4 1 1 0 4 1 2 5 7 6 7 2 2 4 3 6 7 2 6 6 5 11 12 12 13 12 12 10 9 8 7 7 7 7 7
19 19 18 16 15 14 13 13 12 12 12 12 12 11 10 10 8 8 8 7 6 4 3 3 3 1 1 6 11 7 5 7 9 11 9 8 8 7 12 15 13 15 16 17 14 12 13 11 6 1 2 4 4 6 4 5 2 3 2 1 2 2 5 8 3 1 1 3 5 7 4 6 4 7 12 12 14 17 16 14 11 8 7 7 7 8 7 6
21 20 19 18 16 14 13 12 12 11 11 11 11 11 10 8 7 7 7 7 5 2 3 3 4 2 1 8 12 6 3 5 11 14 11 11 10 5 11 16 15 15 15 17 16 9 5 5 3 1 4 3 2 2 4 4 3 3 2 3 3 1 4 9 5 3 4 5 2 6 4 3 5 11 12 12 14 16 15 13 11 9 8 8 7 7 7 5
22 21 21 20 18 15 13 12 11 11 10 10 10 9 7 6 5 5 5 5 3 4 4 2 4 4 1 6 6 4 4 6 8 12 13 14 13 7 9 14 12 12 13 15 15 10 4 2 2 2 2 2 3 3 3 4 4 3 1 3 4 1 3 6 6 4 7 4 1 4 5 1 5 11 11 12 13 12 12 10 10 9 8 8 7 7 6 6
22 22 22 22 21 18 14 12 11 10 9 10 10 7 6 5 3 2 3 2 1 4 6 1 1 2 4 7 5 5 5 6 6 11 17 16 15 9 6 7 5 7 9 11 10 7 3 3 2 1 1 2 2 4 3 2 4 4 2 1 4 2 2 3 6 6 4 6 4 4 5 3 4 9 11 11 11 10 9 9 9 8 7 7 7 6 6 7
22 22 22 23 22 21 17 13 11 10 9 9 9 7 5 4 3 2 0 3 3 2 3 2 1 0 4 6 4 5 7 6 7 11 17 17 16 13 6 3 2 1 2 4 4 2 2 1 1 1 2 3 2 5 2 4 3 2 2 2 3 3 2 3 5 5 2 3 5 5 5 4 3 9 11 9 9 8 9 12 12 10 8 7 6 6 6 8
23 22 22 23 23 22 20 15 13 10 9 8 6 5 2 2 2 1 3 3 3 1 3 3 3 1 2 4 5 8 11 7 6 10 15 16 14 13 8 3 2 3 1 1 2 1 2 1 3 0 2 1 3 5 6 7 6 4 2 2 3 5 4 5 7 6 3 4 5 6 5 2 6 9 10 8 7 7 9 10 9 8 7 6 5 6 7 8
23 22 22 22 22 23 23 18 14 11 9 7 4 3 1 1 2 0 2 2 5 6 6 5 7 4 6 6 4 6 11 7 5 8 14 17 12 6 3 1 3 3 1 3 2 2 2 1 2 4 6 7 7 7 7 6 5 3 2 3 5 5 6 6 6 6 1 4 5 4 6 5 8 9 9 9 7 7 7 6 6 7 8 8 8 8 8 8
22 23 22 22 22 23 23 21 15 10 9 7 4 2 1 1 1 2 2 4 8 10 11 9 11 9 11 9 3 4 6 4 4 5 11 14 9 5 1 1 4 0 3 3 2 2 3 2 6 9 10 9 5 4 4 3 3 3 3 4 4 4 6 6 5 7 2 3 3 2 8 6 7 9 8 9 8 8 8 8 9 9 9 8 9 10 8 5
21 22 22 22 21 21 23 22 15 11 10 7 3 1 3 4 3 3 1 4 8 11 13 12 9 10 13 13 10 2 0 2 6 7 7 9 6 4 2 3 5 3 2 3 2 3 2 3 11 9 6 4 3 5 5 3 3 3 2 2 3 4 5 7 5 6 4 3 2 1 9 5 3 4 7 11 12 10 9 12 12 12 12 10 11 10 7 6
21 21 22 22 22 21 21 21 16 12 9 6 4 5 5 9 8 7 2 3 7 6 9 9 7 8 9 10 10 6 4 4 4 6 7 10 5 5 4 4 5 3 1 4 4 2 2 7 9 5 6 5 3 3 5 1 0 2 3 3 3 4 1 4 6 7 6 2 2 4 7 2 3 1 5 9 8 3 4 8 7 9 11 10 11 10 10 11
21 21 21 21 23 21 20 21 14 8 8 9 10 8 10 15 13 8 2 1 5 4 5 9 7 6 7 6 7 10 4 4 5 4 8 12 4 3 4 4 4 2 2 5 7 5 7 9 5 4 6 6 4 3 2 1 2 3 5 5 3 4 3 4 4 6 6 5 3 6 6 3 3 2 6 6 4 2 2 5 5 6 7 5 6 8 10 11
23 22 21 22 22 21 22 18 6 4 11 11 11 11 14 18 16 5 2 2 4 5 4 6 5 5 8 6 9 10 2 3 6 5 9 13 8 4 3 3 4 3 4 5 6 4 8 8 2 2 2 6 5 4 4 6 3 4 5 7 7 5 4 4 4 5 5 5 4 5 5 3 5 1 6 3 3 4 3 7 9 7 5 5 6 7 8 7
23 22 22 21 21 23 19 8 2 9 13 8 8 14 13 16 16 3 4 4 3 5 3 2 3 5 7 6 7 6 3 3 8 9 10 12 11 6 3 2 1 3 5 5 3 2 5 4 1 3 4 5 5 5 5 7 5 2 5 7 7 5 2 3 2 4 3 1 3 3 5 2 5 3 5 3 5 7 4 8 9 6 6 7 6 7 7 6
24 23 22 21 20 21 12 5 9 12 7 5 10 12 10 13 12 2 3 5 2 3 1 1 0 4 6 5 7 7 2 4 3 7 10 12 9 4 4 3 0 3 4 3 0 2 3 4 4 1 2 5 4 4 6 8 7 3 5 6 6 5 3 2 5 5 2 2 3 5 5 3 2 4 6 3 5 6 6 9 8 6 8 8 6 7 7 7
24 23 22 21 19 16 11 11 13 7 2 7 13 10 9 10 7 1 4 3 2 2 2 2 1 4 2 2 8 6 4 1 2 4 7 13 10 2 3 6 5 5 3 4 3 5 2 3 3 1 2 3 4 6 7 9 5 6 5 6 5 5 4 3 6 4 1 1 3 6 3 3 3 5 5 2 5 5 7 10 9 9 10 9 7 7 7 7
25 24 22 21 19 15 12 10 9 5 5 12 14 12 10 7 2 3 4 1 2 1 1 1 1 2 0 2 5 6 4 1 2 3 2 8 8 2 3 6 6 5 2 4 5 6 3 4 5 4 4 5 6 6 9 10 4 5 4 5 4 4 5 4 5 3 3 4 2 6 2 2 4 5 4 2 2 4 7 8 9 10 10 10 8 7 7 6
25 23 21 21 18 13 8 10 14 9 6 13 16 13 9 3 4 4 0 2 2 1 1 1 2 1 3 4 3 6 6 2 0 1 4 2 2 2 1 2 6 3 2 2 2 5 5 3 3 4 4 6 6 3 6 8 5 3 4 6 5 5 5 4 3 4 4 2 5 6 1 3 1 5 3 1 1 4 5 5 6 8 8 8 7 7 8 7
26 23 21 20 17 11 4 8 12 5 3 15 18 11 5 3 4 3 3 4 2 2 1 0 3 1 4 3 3 5 6 3 1 3 3 2 2 2 1 2 3 2 3 5 3 4 6 3 1 3 3 4 3 3 1 1 2 4 4 4 3 3 4 4 4 4 4 2 5 5 1 5 2 5 4 5 5 4 5 6 7 10 10 9 8 7 7 7
27 24 21 20 18 14 11 9 9 7 9 17 14 5 4 2 0 2 4 3 2 2 2 1 2 2 1 2 2 4 4 3 2 3 4 3 3 4 3 4 4 1 2 4 3 4 5 3 3 5 3 4 5 3 1 5 5 5 5 5 3 1 3 1 2 2 2 3 3 2 0 2 3 6 5 6 7 6 6 7 8 9 9 8 7 7 6 6
28 26 23 19 16 18 20 16 13 13 13 11 6 4 6 3 3 5 4 2 1 2 1 2 3 3 2 2 2 3 2 3 5 3 3 4 4 6 4 3 5 3 2 4 2 2 3 5 5 4 4 2 6 5 2 1 1 3 4 4 3 3 3 1 3 0 2 3 2 2 1 1 2 3 5 7 7 6 3 3 4 4 5 7 7 7 7 6
30 27 23 19 17 20 21 16 13 10 7 3 3 5 5 3 4 4 3 3 3 3 3 3 5 5 3 3 3 2 1 3 5 4 3 4 4 4 4 2 3 3 2 3 2 3 2 3 3 2 2 1 4 5 5 5 3 3 4 6 4 4 4 3 3 2 3 2 2 3 1 2 1 2 6 7 5 5 4 4 6 7 6 7 8 8 9 7
31 26 22 19 19 21 18 15 14 10 4 2 5 4 3 4 3 2 3 4 2 3 5 5 4 3 2 3 3 1 2 2 2 4 3 4 5 5 4 5 5 4 4 3 3 2 4 3 6 4 3 1 2 3 3 6 3 2 2 5 3 4 5 2 3 5 4 2 0 1 2 2 2 2 6 5 5 7 7 6 9 9 7 8 8 8 8 7
31 25 18 13 16 17 13 13 15 13 7 5 4 2 4 4 3 2 2 2 1 3 6 6 3 2 2 2 2 3 2 1 1 2 1 2 2 3 3 4 5 6 6 4 3 1 2 3 6 4 3 1 3 3 2 3 2 1 2 3 4 4 7 5 1 1 4 3 1 1 1 4 2 2 7 7 6 8 7 6 7 8 8 9 7 6 7 8
29 22 10 9 13 14 11 12 18 16 7 6 4 5 4 3 4 3 1 2 1 2 4 3 1 1 2 1 2 3 2 2 2 1 1 1 1 1 2 3 3 8 8 5 2 3 4 2 6 2 1 3 1 3 4 2 3 3 2 5 2 3 4 5 2 3 5 2 3 2 1 3 2 0 5 7 6 6 7 6 5 5 7 8 6 6 6 7
22 14 7 9 15 11 11 16 22 16 6 4 4 3 3 3 3 2 2 4 2 2 3 1 3 2 2 1 2 3 0 0 1 1 1 2 1 1 2 3 2 5 7 5 2 1 4 1 7 2 1 5 4 6 4 4 2 4 3 3 4 3 1 2 3 2 2 1 2 3 2 2 1 2 4 5 2 2 4 4 4 5 6 6 6 6 6 6
12 5 3 13 19 7 14 21 20 10 4 4 4 2 3 3 4 2 2 4 1 1 1 4 3 1 2 3 3 2 1 3 1 1 1 1 1 2 1 1 1 2 1 3 4 1 3 3 4 4 2 3 5 5 2 5 5 3 2 3 3 3 3 2 2 3 4 3 2 1 3 2 3 4 3 5 6 3 4 4 3 4 5 4 4 5 4 5
4 1 3 17 18 4 19 19 12 5 3 4 4 3 2 2 3 3 4 3 1 2 2 4 3 2 3 3 3 2 2 3 2 2 1 0 1 2 1 1 1 5 6 4 3 1 3 3 3 5 4 2 2 0 3 2 3 3 3 4 3 2 2 2 1 2 4 4 3 2 0 4 5 4 4 6 7 5 6 6 4 3 4 4 4 5 4 4
3 1 4 19 11 12 16 9 3 3 4 2 1 3 2 2 2 4 5 4 3 4 4 4 4 4 4 3 3 3 2 2 2 3 0 1 2 2 3 1 1 3 4 5 4 2 2 3 3 1 3 2 1 2 0 2 2 3 3 1 1 2 3 4 1 1 2 4 4 4 2 6 6 2 2 5 5 5 6 7 6 3 3 4 4 5 5 4
4 1 5 20 7 14 6 4 1 1 3 3 2 3 2 2 3 3 4 4 3 5 4 4 6 5 5 4 3 3 3 3 2 3 2 2 2 3 2 2 4 4 3 3 2 1 3 4 3 1 1 1 2 3 3 2 4 6 4 1 2 2 3 5 4 3 1 3 2 4 2 5 6 1 2 4 4 3 2 7 8 4 3 3 3 5 5 5
3 1 7 23 9 11 2 5 1 3 0 3 3 2 2 2 2 2 3 2 2 4 3 2 4 3 3 3 1 2 3 2 1 3 4 1 2 2 3 3 5 4 4 2 2 2 2 4 3 1 3 3 4 5 4 3 5 6 3 2 2 1 1 4 5 3 3 3 2 4 1 5 5 4 5 5 4 3 2 5 8 6 4 4 4 4 5 4
2 3 4 23 20 3 2 3 0 2 2 3 4 3 3 2 4 4 3 1 2 2 2 1 2 2 0 1 3 3 2 2 1 0 3 3 1 2 1 3 6 3 1 2 2 0 1 1 3 3 1 2 4 5 5 5 4 3 2 4 3 3 3 2 1 3 3 3 4 5 2 5 5 6 8 8 6 5 5 5 7 8 6 5 5 5 5 6
3 1 2 15 23 10 3 1 1 1 3 3 3 5 4 2 3 4 1 2 3 2 1 2 3 4 3 4 5 5 5 3 2 3 2 1 2 3 3 3 6 4 2 3 3 3 2 2 3 4 4 4 2 2 2 2 2 2 2 5 5 4 5 2 2 4 2 2 3 5 4 4 5 8 10 9 8 6 5 4 4 5 6 7 6 6 6 6
1 3 2 6 11 8 1 1 1 1 3 1 1 3 4 3 4 4 4 4 3 3 4 4 4 3 5 5 5 5 7 5 2 3 4 4 3 3 4 4 5 3 6 8 5 4 4 2 2 4 4 5 5 4 3 3 3 1 2 4 5 3 4 4 4 3 3 3 3 0 3 2 4 8 9 9 8 6 6 5 4 3 3 3 2 4 5 4
2 2 3 2 3 4 3 4 5 5 4 1 1 3 5 4 3 5 5 4 4 4 4 6 7 5 3 3 5 4 6 6 5 4 4 4 3 4 5 6 7 5 4 6 4 4 5 3 2 4 4 1 3 2 2 4 5 2 1 4 5 5 5 6 4 2 4 5 2 2 1 5 2 6 7 7 7 6 6 6 5 5 5 5 4 4 4 3
3 1 2 2 2 2 3 5 6 7 8 6 2 2 6 7 7 5 4 3 5 5 3 5 9 8 4 2 4 3 5 5 6 5 4 4 4 4 6 5 5 7 5 3 3 4 6 1 1 4 5 4 3 4 6 7 6 4 4 4 4 5 6 5 2 1 4 6 4 3 5 5 2 6 6 6 6 5 6 6 6 6 7 6 7 8 7 6
3 1 3 2 2 1 1 2 4 6 11 9 4 4 7 9 8 5 4 2 5 7 4 4 6 8 8 6 5 4 3 3 3 4 3 4 4 3 4 4 5 7 6 4 3 3 4 1 1 4 4 5 4 4 8 9 6 5 5 5 4 6 7 6 3 4 8 8 5 7 10 7 3 4 6 6 5 3 4 7 9 10 10 9 10 10 9 8
2 0 3 3 3 3 2 2 2 6 9 9 6 7 8 8 8 6 5 5 3 5 5 4 3 4 7 9 8 5 1 2 2 2 1 2 3 2 2 1 3 6 6 3 2 2 4 2 2 3 4 3 4 5 9 10 8 7 6 6 5 7 8 7 4 4 8 8 5 8 10 6 4 3 5 5 5 6 9 11 11 10 9 10 12 11 10 10
3 3 2 3 2 5 4 3 3 5 5 7 6 6 7 8 8 5 5 7 5 3 3 2 1 3 5 9 9 4 2 3 4 6 4 2 2 1 1 1 1 4 5 3 2 2 4 2 1 5 4 0 2 4 7 9 10 9 6 6 6 6 5 4 4 3 4 6 6 8 7 2 4 4 5 6 8 11 12 11 9 9 9 10 11 10 9 9
7 2 3 4 3 5 4 3 5 4 3 4 5 7 7 8 9 5 4 5 6 6 3 0 1 3 5 8 7 4 5 5 6 7 5 5 5 4 4 4 1 1 2 2 2 2 3 4 2 4 4 2 2 1 4 5 7 4 2 2 3 5 6 6 6 7 4 5 5 5 3 2 4 4 5 7 10 11 10 8 8 8 9 10 9 8 8 8
Wind_Direction
319 318 317 316 315 313 313 313 313 313 313 313 313 314 315 316 315 315 314 314 315 314 316 316 314 315 314 316 319 319 314 310 311 307 268 263 270 258 231 195 181 180 203 235 221 187 74 50 359 51 84 89 162 216 193 178 149 96 104 145 219 208 203 198 190 194 200 275 293 321 336 7 344 337 58 46 46 77 67 41 41 40 55 85 102 122 134 135
319 318 316 315 312 310 310 310 311 311 312 313 314 313 313 314 315 316 315 315 316 315 317 316 314 314 314 318 320 317 313 313 308 285 261 263 267 243 207 186 186 192 196 214 209 182 105 75 23 69 79 42 264 240 214 207 166 143 134 185 224 204 214 208 203 244 240 269 293 312 318 343 328 269 62 79 64 71 76 54 59 75 78 88 109 125 131 132
319 317 314 312 311 310 309 309 309 309 311 311 311 312 312 313 314 315 315 315 315 317 317 314 315 313 316 319 316 315 312 318 305 268 270 270 243 224 189 176 186 194 187 202 206 185 144 110 61 74 75 353 271 260 293 258 207 173 153 220 245 212 231 249 230 241 240 256 295 305 309 320 283 260 53 114 104 41 113 127 104 110 113 114 126 133 131 133
320 316 312 312 311 310 309 309 309 309 309 308 309 311 312 313 313 313 314 315 315 317 314 314 317 313 318 317 311 315 316 327 283 256 292 304 238 202 184 175 177 181 179 184 181 162 158 112 63 61 82 349 306 1 263 254 223 187 171 205 239 202 236 263 235 242 248 222 264 299 318 311 291 6 86 128 102 347 224 196 158 144 139 135 142 142 136 136
320 315 313 313 310 309 308 308 307 307 307 306 307 307 309 313 312 312 312 312 312 313 314 315 317 317 318 316 310 311 326 28 269 277 292 293 269 190 186 183 177 177 173 184 183 147 146 101 75 53 74 351 326 40 247 248 159 186 225 207 232 203 235 265 246 246 244 205 251 306 312 294 312 46 133 143 145 238 215 195 168 152 148 148 149 145 139 138
319 315 314 312 310 308 307 306 305 305 306 305 306 305 307 309 309 311 310 310 310 308 312 314 318 321 316 316 315 305 8 85 279 289 282 260 244 193 185 187 185 178 178 188 176 143 132 90 83 78 86 55 222 179 251 263 139 214 269 237 241 216 216 266 267 247 222 215 253 253 280 288 2 343 164 145 200 237 171 142 153 152 148 144 142 143 142 143
320 315 314 312 309 306 305 303 302 302 303 302 304 304 305 306 307 308 306 306 306 306 308 310 319 320 320 330 329 36 81 262 277 285 265 226 203 191 182 187 188 185 191 190 157 133 120 104 118 148 109 14 206 208 247 268 162 204 260 271 261 240 227 256 266 264 244 237 241 218 302 274 291 300 74 64 264 177 117 125 139 141 138 138 139 142 145 147
321 316 314 312 308 305 304 300 300 301 300 301 301 302 303 304 304 302 303 302 299 303 303 307 321 319 328 349 27 12 306 251 277 290 238 209 195 182 178 184 190 191 196 198 176 146 131 128 165 154 112 257 187 204 241 260 297 215 235 257 264 263 247 255 265 268 255 243 239 199 267 247 225 153 59 0 338 119 119 126 134 136 137 142 145 148 151 153
325 319 315 313 309 305 301 297 299 300 299 299 297 296 297 298 299 300 300 298 297 298 300 309 316 314 327 347 41 340 273 250 285 276 221 211 205 182 178 182 188 193 192 201 189 163 167 165 188 178 167 226 189 228 237 195 266 217 221 249 265 273 264 263 266 261 251 239 190 174 241 254 221 110 43 344 75 119 124 129 137 140 141 146 152 158 159 158
330 324 318 314 310 305 299 296 298 299 298 295 293 293 293 293 294 296 296 296 297 294 299 309 304 308 319 332 85 251 285 307 295 251 231 223 208 182 182 185 187 190 187 194 188 175 168 164 184 177 173 227 211 227 195 163 219 218 222 264 262 269 271 262 262 259 238 224 192 183 231 262 230 118 89 256 130 134 128 132 147 146 147 153 159 166 165 166
335 329 323 316 312 305 300 299 299 298 296 292 291 291 291 292 292 293 294 293 292 288 291 299 303 304 308 33 125 219 285 327 297 257 253 232 208 190 189 192 190 190 187 181 195 194 172 155 158 120 167 257 255 272 269 196 215 265 279 306 280 281 285 259 263 260 198 223 199 174 226 288 22 117 174 168 150 151 139 142 155 150 154 160 161 167 172 175
340 335 329 321 314 308 305 302 299 296 293 290 289 289 289 292 291 290 291 290 287 283 282 294 304 285 327 36 208 235 266 352 330 268 254 239 217 210 200 197 196 196 194 185 206 208 200 191 148 119 214 285 335 302 280 215 196 278 290 318 294 332 320 263 258 230 168 207 181 146 291 312 311 230 172 155 152 156 146 148 157 156 159 160 163 169 178 181
345 342 336 327 319 312 309 303 298 295 292 291 289 289 290 288 287 287 287 286 279 270 268 279 282 275 357 256 242 251 259 293 310 271 250 241 226 224 210 204 206 208 205 201 215 216 212 210 175 172 221 120 272 267 320 349 325 293 49 137 298 355 322 271 265 203 170 200 170 135 279 279 277 219 162 153 154 155 155 159 160 157 158 158 168 177 183 183
351 348 342 334 326 318 313 307 302 299 295 294 290 288 287 284 284 285 282 279 274 258 253 260 261 251 132 255 270 289 273 259 261 247 236 222 214 215 207 205 211 211 211 216 229 229 216 211 187 203 249 174 235 275 337 357 2 324 353 62 342 355 286 289 300 231 249 250 155 132 241 256 234 187 166 162 162 160 165 169 163 155 158 165 175 181 186 187
354 353 349 343 335 325 317 311 305 301 297 292 289 288 284 283 284 285 282 275 270 208 198 233 223 198 5 278 278 300 280 235 225 219 215 207 188 177 198 200 208 212 215 226 234 243 212 185 168 245 267 225 201 297 326 347 0 6 359 326 332 203 270 301 292 203 218 269 126 136 230 255 184 189 177 170 171 166 163 167 165 160 164 172 182 183 182 183
357 355 354 350 344 333 321 313 307 300 300 297 295 291 284 285 278 281 284 271 259 172 168 210 214 185 305 282 285 305 242 218 223 208 204 209 194 178 191 195 214 223 226 238 241 252 246 184 184 192 243 269 104 86 30 7 345 356 74 252 278 278 298 314 311 246 201 220 302 177 204 214 189 197 185 174 175 167 161 163 163 165 171 178 184 183 178 174
357 356 355 354 351 343 328 316 309 305 306 305 300 291 282 277 256 281 303 263 228 179 173 185 255 189 261 274 293 313 254 217 221 198 198 211 210 201 173 177 223 236 235 251 250 254 243 204 230 225 23 19 98 91 48 342 307 315 18 273 256 262 280 303 308 287 199 184 224 217 201 228 214 189 185 179 169 162 161 157 161 175 183 187 188 184 181 177
354 355 355 355 353 350 339 322 313 310 311 310 306 303 285 247 234 278 169 148 112 137 192 261 320 225 267 277 287 306 300 256 210 192 196 206 217 220 206 175 172 171 259 283 261 230 206 210 63 45 0 18 77 99 136 224 209 234 308 347 299 291 236 261 277 280 274 217 208 192 212 248 193 172 179 179 157 155 168 167 176 185 179 185 193 189 188 185
350 352 353 352 352 352 346 332 320 315 319 322 321 324 294 211 221 189 146 143 118 140 247 225 182 182 259 267 273 293 312 297 205 192 199 203 213 222 217 199 100 92 84 336 297 250 159 35 41 147 264 271 196 155 174 206 183 185 218 202 268 288 266 254 252 254 260 250 227 196 200 181 157 167 170 168 152 160 185 187 181 173 166 179 195 199 194 191
347 348 348 350 350 350 348 339 326 320 327 337 349 359 14 98 31 339 175 199 208 225 253 215 188 237 280 272 283 309 322 315 210 197 202 200 191 187 195 88 62 61 136 181 240 285 119 138 253 221 220 218 214 196 187 192 170 168 225 230 256 270 274 270 262 281 201 196 250 192 147 148 164 169 167 162 160 173 193 204 180 163 172 183 194 202 195 191
346 344 344 346 347 348 347 340 329 323 328 333 349 4 225 195 351 293 249 239 232 226 243 232 201 228 259 260 282 359 346 321 278 246 210 198 163 139 219 109 103 5 252 184 187 331 73 153 235 224 218 214 196 184 188 186 176 197 229 243 264 243 260 271 269 309 24 132 298 109 126 154 169 161 162 160 176 192 184 185 184 179 182 186 196 201 187 172
345 343 340 342 344 345 345 340 334 327 326 326 321 212 240 267 255 260 279 282 260 220 226 239 223 240 256 261 269 271 107 266 300 298 209 181 145 163 218 116 141 217 250 113 91 327 19 239 244 231 207 198 164 149 159 188 197 188 194 201 249 246 280 295 292 323 13 99 296 143 128 148 192 163 170 175 190 202 189 187 186 178 182 190 197 192 173 161
344 341 339 338 338 340 341 338 331 321 318 312 265 227 294 316 298 283 286 298 281 220 211 227 220 241 253 263 249 191 168 203 252 285 194 160 155 178 163 133 169 195 125 133 159 183 248 247 239 199 142 164 227 182 144 168 241 162 181 180 252 269 300 294 303 334 354 57 153 124 107 94 334 24 197 207 211 213 182 192 193 183 188 196 196 187 173 173
343 340 338 335 334 335 337 332 324 319 325 303 273 276 325 334 328 306 253 255 287 262 220 211 195 216 232 244 194 163 174 198 195 263 182 161 158 157 164 163 156 192 203 168 158 175 241 247 216 122 128 159 222 263 154 201 308 262 213 181 211 257 223 233 299 337 344 2 67 83 62 344 358 91 207 242 290 340 126 175 214 216 207 202 196 193 185 182
342 339 336 334 331 329 332 331 322 353 332 301 286 320 340 338 340 347 138 5 295 281 270 210 186 216 215 187 159 159 166 219 209 215 173 169 167 136 182 184 139 216 215 153 142 197 254 256 187 171 181 150 181 241 205 182 217 291 242 202 197 203 230 265 333 15 23 4 356 61 66 302 319 241 214 241 247 236 167 183 213 212 206 206 194 195 193 192
341 338 335 334 329 327 332 333 328 339 325 298 313 333 333 333 342 29 118 21 302 275 303 183 182 201 196 172 158 139 94 262 228 196 179 181 175 144 155 199 133 214 192 151 145 210 262 282 122 220 216 153 168 234 226 175 151 288 239 201 179 154 196 284 26 66 79 314 314 49 112 234 311 283 245 244 200 213 199 201 215 199 203 218 202 194 188 186
339 336 334 331 329 332 334 306 314 325 312 307 333 326 314 327 339 52 97 21 307 263 200 169 153 170 190 184 150 124 137 264 217 184 189 182 177 149 166 201 200 197 171 115 355 245 245 316 3 300 184 147 167 231 222 159 133 239 228 151 128 130 169 215 103 100 184 217 325 9 95 134 310 260 263 272 171 205 222 212 218 207 208 218 208 196 186 181
336 334 333 328 328 328 313 295 307 309 269 329 339 326 311 320 324 107 79 28 283 267 178 212 203 172 211 156 147 161 216 236 113 215 199 169 171 134 192 212 179 188 181 126 223 262 230 295 303 187 134 154 198 214 185 147 144 245 212 136 129 139 151 130 97 95 344 65 330 326 46 102 276 270 289 313 153 199 234 221 217 213 211 212 206 195 185 182
334 332 330 326 323 319 308 288 284 276 298 334 345 332 316 315 336 80 74 9 269 314 144 218 242 199 226 108 171 214 238 94 145 240 133 156 184 139 184 208 154 174 235 132 204 260 247 235 217 155 148 200 223 217 170 154 186 235 161 105 74 83 84 75 87 92 32 51 243 283 349 114 267 290 314 343 134 195 239 242 223 215 216 208 195 186 179 173
332 329 328 324 319 319 313 280 277 278 308 340 341 328 321 343 53 66 128 257 269 281 129 168 271 195 125 131 203 229 233 267 210 118 64 124 199 63 122 140 100 136 294 24 231 256 287 282 177 152 181 205 209 199 169 170 186 167 96 63 47 40 41 48 56 81 62 4 253 259 276 119 260 288 267 245 201 187 222 267 244 217 220 211 188 178 176 170
329 326 324 318 310 308 296 282 286 268 328 341 334 327 343 33 69 100 213 251 267 286 21 197 266 59 132 167 218 217 213 246 355 102 87 93 103 51 34 56 69 77 4 342 292 297 329 335 223 248 217 162 138 136 136 25 57 93 81 72 81 10 17 32 356 44 91 265 262 257 253 104 153 263 256 251 263 221 201 235 234 209 203 200 184 170 168 164
327 324 318 309 299 278 248 256 283 276 305 327 331 353 66 68 95 184 238 303 306 282 8 300 292 359 176 206 250 223 191 203 225 141 132 144 164 182 196 186 172 95 336 274 272 332 317 252 274 304 254 140 115 137 331 6 34 80 81 72 90 18 16 29 310 15 154 234 252 258 355 101 211 245 260 268 276 273 234 222 222 210 196 183 163 149 142 139
326 322 313 303 289 268 258 265 276 279 295 317 339 46 78 109 221 221 238 303 260 249 333 292 308 318 223 190 255 241 187 201 223 192 140 137 166 201 229 198 148 140 220 213 216 316 300 300 324 326 284 175 134 150 208 300 78 131 129 111 122 107 77 239 262 319 230 238 264 297 281 235 266 283 284 281 291 306 284 208 173 164 157 143 128 118 111 109
325 322 313 301 283 270 268 269 262 257 274 322 40 63 90 152 233 233 234 257 259 293 337 325 319 312 238 210 235 206 165 235 203 167 139 126 152 208 243 239 163 152 160 152 185 178 146 313 293 206 266 279 161 175 171 156 149 182 164 129 139 154 143 201 219 177 206 230 301 310 264 173 176 311 300 294 319 10 37 62 84 88 98 111 108 104 106 104
325 321 313 298 279 272 267 254 242 227 209 71 65 89 151 204 240 230 223 242 274 323 326 327 332 329 278 252 273 98 120 251 181 140 152 149 168 194 201 217 200 151 125 155 224 161 132 238 255 253 266 192 215 241 141 119 121 236 147 108 146 186 148 140 177 169 170 147 330 261 221 207 193 287 325 352 19 28 37 52 77 86 87 96 97 99 105 103
326 325 317 288 275 277 263 237 219 197 167 99 86 167 205 216 217 197 222 240 8 341 333 341 5 16 307 285 320 8 46 23 63 108 192 170 184 200 200 224 200 169 157 164 211 174 124 250 277 310 320 182 196 215 102 102 177 208 134 158 215 174 121 107 142 89 79 102 253 250 261 306 341 341 341 8 27 24 22 31 70 90 94 93 94 98 106 109
328 330 315 279 292 288 254 215 188 173 143 99 139 210 217 216 213 208 274 356 19 18 31 9 338 239 273 307 319 320 2 10 9 64 230 258 259 237 269 273 201 190 190 160 183 204 146 243 287 334 22 299 248 113 68 56 124 117 181 197 170 72 96 104 104 18 46 118 270 344 339 316 31 37 327 359 23 31 22 5 23 70 94 98 96 97 102 109
324 326 297 305 325 299 231 190 166 152 107 104 174 236 214 217 243 225 339 356 339 8 49 212 249 223 209 230 256 265 333 101 347 42 231 256 244 208 262 272 211 202 211 174 161 225 124 165 288 288 189 294 349 69 43 340 68 127 195 186 99 100 170 93 111 127 94 167 275 353 350 315 139 215 311 344 330 48 60 30 20 44 73 90 94 97 98 99
321 324 317 345 345 296 190 167 152 127 76 145 192 252 207 227 275 269 306 333 293 271 274 222 226 265 240 202 195 229 193 178 160 80 219 233 219 215 206 248 268 357 340 153 155 194 97 133 268 282 246 304 6 54 41 314 335 32 36 9 50 126 158 147 138 145 139 163 206 11 3 304 225 221 247 273 269 236 159 149 89 55 57 67 72 75 82 96
333 357 357 357 352 193 162 148 134 100 119 172 191 218 226 244 273 267 256 265 237 226 243 224 218 259 258 228 196 191 160 166 140 117 200 217 168 232 274 253 302 4 22 65 112 89 61 113 210 281 322 19 18 57 161 200 324 7 29 5 1 46 109 131 97 95 128 141 164 152 52 273 253 213 213 259 274 249 202 166 121 101 100 92 85 73 57 57
6 45 349 1 7 166 151 127 114 110 155 181 193 203 261 262 249 285 255 223 219 238 236 228 235 245 245 252 235 198 151 151 132 105 143 293 131 179 282 283 60 13 24 39 44 72 91 126 164 298 3 71 197 285 81 166 154 115 101 24 122 146 124 119 116 314 107 125 158 154 158 264 263 197 223 268 275 249 205 145 118 108 107 101 98 96 81 56
26 89 334 2 19 176 139 62 200 82 137 184 219 200 227 241 228 285 270 232 218 228 233 231 237 236 227 237 226 176 141 145 164 129 152 250 192 168 234 179 108 78 82 70 330 223 127 104 105 70 338 192 242 323 12 91 113 99 91 96 131 138 101 120 175 229 96 100 134 115 115 260 268 325 329 301 308 288 210 141 130 117 91 84 76 77 76 64
36 223 330 4 14 189 114 33 239 356 67 227 281 228 204 228 233 263 265 267 237 222 230 232 228 210 197 229 212 122 104 106 182 168 157 217 294 209 213 153 107 72 74 97 279 284 79 83 86 22 311 317 319 329 0 51 74 67 32 25 75 53 89 139 173 175 131 141 131 86 76 259 282 339 356 344 353 8 39 114 124 123 109 102 103 100 101 104
357 236 311 8 17 120 126 44 286 326 300 306 326 283 242 226 229 239 240 312 345 275 269 325 316 339 57 83 63 50 51 85 35 355 145 150 288 271 255 104 98 74 43 155 183 275 24 92 103 92 24 355 349 338 348 3 33 59 345 331 5 46 61 95 120 77 105 175 150 115 173 251 287 353 13 3 7 52 70 87 118 129 133 136 138 141 146 151
350 352 269 1 16 38 105 147 186 269 300 323 305 291 305 281 258 265 195 80 11 345 9 342 326 346 14 54 53 16 15 71 69 7 39 49 359 345 344 67 94 107 151 149 133 106 98 112 112 124 158 173 191 256 253 290 357 20 336 340 0 34 45 66 87 72 109 176 117 122 182 240 315 359 12 3 4 31 41 54 101 124 137 148 153 156 162 163
26 26 327 340 13 31 62 200 98 356 317 283 264 324 341 322 314 349 70 81 21 23 46 2 338 7 20 42 62 24 5 17 46 52 33 0 343 336 344 29 53 78 113 101 82 88 88 55 83 120 146 172 183 208 211 146 92 67 313 346 352 5 47 80 88 99 163 135 66 50 176 120 357 352 0 359 4 10 360 3 22 28 45 74 109 133 141 144
77 29 1 338 356 10 357 3 15 359 330 330 78 9 350 347 356 5 26 42 15 25 52 24 17 30 14 30 84 54 353 356 23 44 21 342 306 306 350 40 32 2 68 84 52 86 90 40 48 85 63 89 160 137 83 90 93 98 33 2 345 352 48 81 94 134 144 115 79 296 108 96 25 342 352 349 354 4 360 359 2 0 6 12 20 47 66 78
56 83 342 344 359 10 13 359 350 351 2 14 47 32 10 25 39 17 345 359 19 23 55 34 17 20 15 42 110 68 358 8 19 7 353 348 335 333 356 30 16 352 22 49 8 88 106 107 164 93 60 48 78 96 95 91 81 65 51 30 4 16 60 91 102 45 105 122 153 156 98 88 7 337 342 339 343 354 360 5 15 18 14 17 29 33 27 24
44 66 318 345 51 41 310 308 328 12 18 12 17 29 24 31 36 20 344 356 15 12 46 65 14 9 22 41 93 78 16 45 38 350 350 351 335 359 15 357 343 353 27 49 13 76 109 165 191 118 93 66 59 98 107 99 86 59 32 26 51 65 71 79 63 56 82 97 123 114 91 69 9 331 330 332 333 345 24 32 34 31 25 28 39 37 27 21
44 34 326 359 43 12 341 325 9 46 26 8 12 16 13 22 25 20 20 39 36 359 22 74 48 20 37 46 70 90 88 125 109 295 314 14 345 12 37 333 324 342 2 40 6 30 95 153 191 100 86 49 32 76 96 99 101 84 41 16 48 69 57 45 33 51 79 88 95 95 84 56 358 347 342 340 0 36 45 40 36 33 29 36 43 39 35 32
350 261 347 61 33 358 355 348 21 68 36 3 4 2 1 7 5 12 37 40 53 35 20 89 75 19 44 47 55 68 246 206 201 237 228 195 251 283 291 255 348 346 345 13 359 5 73 115 65 67 93 187 12 91 109 102 91 75 40 6 21 58 67 53 29 26 96 127 106 82 82 27 312 337 358 14 40 49 44 35 33 32 30 39 45 39 37 38
354 311 33 90 77 3 354 358 19 57 62 358 354 358 1 358 357 23 72 34 28 30 9 340 58 37 40 32 24 349 290 251 235 248 237 217 239 251 253 266 292 328 315 2 27 29 85 117 114 87 121 221 302 111 134 102 77 53 328 341 52 94 107 90 48 25 45 119 114 102 134 228 305 353 32 38 45 50 45 35 32 30 29 36 41 37 33 33